,,,PA_Meas_PMT16A,,PR_Meas_QMR101_102,,RH_Meas_QMH101,,SR_Meas_QMS101,,TA_Meas_QMH101,,GenWind,,GenWind,
date,time,status,PA,status,PR,status,RH,status,SR,status,TA,status,DirAvg,status,SpdAvg,
2010-01-07, 00:00:04,VALID,1001.82,VALID,0,VALID,88.9909,VALID,0,VALID,26.6245,VALID,248,VALID,0.00195313,
2010-01-07, 00:01:04,VALID,1001.87,VALID,0,VALID,89.1053,VALID,0,VALID,26.607,VALID,265,VALID,0.0195313,
2010-01-07, 00:02:04,VALID,1001.84,VALID,0,VALID,89.0519,VALID,0,VALID,26.5661,VALID,261,VALID,0.548828,
2010-01-07, 00:03:04,VALID,1001.86,VALID,0,VALID,89.0214,VALID,0,VALID,26.5486,VALID,270,VALID,0.696484,
2010-01-07, 00:04:04,VALID,1001.85,VALID,0,VALID,88.9222,VALID,0,VALID,26.5076,VALID,300,VALID,1.26797,
2010-01-07, 00:05:04,VALID,1001.83,VALID,0,VALID,89.2655,VALID,0,VALID,26.5076,VALID,341,VALID,0.443359,
2010-01-07, 00:06:04,VALID,1001.88,VALID,0,VALID,89.4257,VALID,0,VALID,26.4881,VALID,333,VALID,0.101563,
2010-01-07, 00:07:04,VALID,1001.85,VALID,0,VALID,89.4181,VALID,0,VALID,26.4492,VALID,8,VALID,0.41875,
2010-01-07, 00:08:04,VALID,1001.84,VALID,0,VALID,89.5325,VALID,0,VALID,26.4297,VALID,2,VALID,0.252344,
2010-01-07, 00:09:05,VALID,1001.86,VALID,0,VALID,89.6699,VALID,0,VALID,26.3907,VALID,352,VALID,0.795703,
2010-01-07, 00:10:05,VALID,1001.86,VALID,0,VALID,89.8224,VALID,0,VALID,26.3518,VALID,352,VALID,0.394922,
2010-01-07, 00:11:05,VALID,1001.84,VALID,0,VALID,89.9674,VALID,0,VALID,26.2933,VALID,352,VALID,0.0519531,
2010-01-07, 00:12:05,VALID,1001.84,VALID,0,VALID,90.1429,VALID,0,VALID,26.2953,VALID,352,VALID,0,
2010-01-07, 00:13:05,VALID,1001.82,VALID,0.5,VALID,90.4099,VALID,0,VALID,26.2544,VALID,352,VALID,0.0832031,
2010-01-07, 00:14:05,VALID,1001.82,VALID,0,VALID,90.6311,VALID,0,VALID,26.194,VALID,352,VALID,0.0816406,
2010-01-07, 00:15:05,VALID,1001.81,VALID,0,VALID,90.7684,VALID,0,VALID,26.1959,VALID,352,VALID,0.294141,
2010-01-07, 00:16:05,VALID,1001.77,VALID,0,VALID,90.8676,VALID,0,VALID,26.1765,VALID,352,VALID,0.262891,
2010-01-07, 00:17:05,VALID,1001.76,VALID,0,VALID,91.0278,VALID,0,VALID,26.116,VALID,352,VALID,0.00351562,
2010-01-07, 00:18:05,VALID,1001.72,VALID,0,VALID,91.1728,VALID,0,VALID,26.118,VALID,352,VALID,0.396484,
2010-01-07, 00:19:05,VALID,1001.72,VALID,0,VALID,91.2872,VALID,0.100563,VALID,26.0791,VALID,352,VALID,0.351172,
2010-01-07, 00:20:05,VALID,1001.69,VALID,0,VALID,91.4398,VALID,0,VALID,26.0791,VALID,352,VALID,0.210938,
2010-01-07, 00:21:05,VALID,1001.7,VALID,0,VALID,91.4932,VALID,0,VALID,26.0381,VALID,352,VALID,0.444922,
2010-01-07, 00:22:05,VALID,1001.68,VALID,0,VALID,91.6152,VALID,0,VALID,26.0187,VALID,354,VALID,0.64375,
2010-01-07, 00:23:05,VALID,1001.64,VALID,0,VALID,91.7144,VALID,0,VALID,26.0206,VALID,354,VALID,0.360547,
2010-01-07, 00:24:05,VALID,1001.61,VALID,0,VALID,91.7678,VALID,0,VALID,26.0012,VALID,271,VALID,0.198047,
2010-01-07, 00:25:05,VALID,1001.61,VALID,0,VALID,91.8365,VALID,0,VALID,25.9797,VALID,274,VALID,0,
2010-01-07, 00:26:05,VALID,1001.6,VALID,0,VALID,91.9051,VALID,0.100563,VALID,25.9797,VALID,271,VALID,0.499219,
2010-01-07, 00:27:05,VALID,1001.62,VALID,0,VALID,91.9662,VALID,0,VALID,25.9602,VALID,214,VALID,0.275,
2010-01-07, 00:28:05,VALID,1001.61,VALID,0,VALID,92.0196,VALID,0.100563,VALID,25.9797,VALID,214,VALID,0.850781,
2010-01-07, 00:29:05,VALID,1001.64,VALID,0,VALID,92.1569,VALID,0.100563,VALID,26.0012,VALID,211,VALID,1.03906,
2010-01-07, 00:30:05,VALID,1001.64,VALID,0,VALID,92.3247,VALID,0,VALID,26.0012,VALID,206,VALID,1.03633,
2010-01-07, 00:31:05,VALID,1001.64,VALID,0,VALID,92.4468,VALID,0,VALID,25.9817,VALID,202,VALID,1.14219,
2010-01-07, 00:32:05,VALID,1001.65,VALID,0,VALID,92.5154,VALID,0.100563,VALID,25.9408,VALID,214,VALID,1.97227,
2010-01-07, 00:33:05,VALID,1001.66,VALID,0,VALID,92.5536,VALID,0,VALID,25.9817,VALID,219,VALID,0.226172,
2010-01-07, 00:34:05,VALID,1001.69,VALID,0,VALID,92.5154,VALID,0.100563,VALID,25.9622,VALID,120,VALID,0.864844,
2010-01-07, 00:35:05,VALID,1001.69,VALID,0,VALID,92.2255,VALID,0.100563,VALID,25.9018,VALID,282,VALID,0.983203,
2010-01-07, 00:36:05,VALID,1001.75,VALID,0,VALID,88.9909,VALID,0,VALID,25.6486,VALID,211,VALID,2.80117,
2010-01-07, 00:37:05,VALID,1001.79,VALID,0,VALID,89.3571,VALID,0.100563,VALID,25.6506,VALID,267,VALID,0.330859,
2010-01-07, 00:38:05,VALID,1001.84,VALID,0,VALID,89.9292,VALID,0.100563,VALID,25.6506,VALID,188,VALID,1.03867,
2010-01-07, 00:39:05,VALID,1001.78,VALID,0,VALID,89.2732,VALID,0,VALID,25.5921,VALID,328,VALID,1.7582,
2010-01-07, 00:40:05,VALID,1001.85,VALID,0,VALID,88.5255,VALID,0,VALID,25.5318,VALID,262,VALID,1.1707,
2010-01-07, 00:41:05,VALID,1001.78,VALID,0,VALID,88.2356,VALID,0,VALID,25.5142,VALID,292,VALID,1.64648,
2010-01-07, 00:42:05,VALID,1001.68,VALID,0,VALID,88.7162,VALID,0,VALID,25.4928,VALID,240,VALID,0.561719,
2010-01-07, 00:43:05,VALID,1001.56,VALID,0,VALID,88.7468,VALID,0,VALID,25.4558,VALID,217,VALID,1.24297,
2010-01-07, 00:44:05,VALID,1001.49,VALID,0,VALID,89.3647,VALID,0,VALID,25.4169,VALID,189,VALID,1.37148,
2010-01-07, 00:45:05,VALID,1001.53,VALID,0,VALID,89.9826,VALID,0,VALID,25.3584,VALID,169,VALID,0.571094,
2010-01-07, 00:46:05,VALID,1001.46,VALID,0,VALID,90.3488,VALID,0,VALID,25.3604,VALID,268,VALID,2.78398,
2010-01-07, 00:47:05,VALID,1001.53,VALID,0,VALID,90.9286,VALID,0,VALID,25.3604,VALID,283,VALID,2.6625,
2010-01-07, 00:48:05,VALID,1001.62,VALID,0,VALID,91.1346,VALID,0,VALID,25.3604,VALID,272,VALID,2.20898,
2010-01-07, 00:49:05,VALID,1001.68,VALID,0,VALID,91.3024,VALID,0,VALID,25.3584,VALID,292,VALID,1.81719,
2010-01-07, 00:50:05,VALID,1001.71,VALID,0,VALID,91.4932,VALID,0,VALID,25.339,VALID,278,VALID,1.975,
2010-01-07, 00:51:05,VALID,1001.81,VALID,0,VALID,91.8059,VALID,0,VALID,25.3019,VALID,313,VALID,0.729297,
2010-01-07, 00:52:05,VALID,1001.82,VALID,0,VALID,92.0577,VALID,0,VALID,25.2611,VALID,291,VALID,1.39805,
2010-01-07, 00:53:05,VALID,1001.82,VALID,0.5,VALID,92.0958,VALID,0,VALID,25.1832,VALID,270,VALID,2.48789,
2010-01-07, 00:54:05,VALID,1001.87,VALID,0.5,VALID,91.2338,VALID,0,VALID,24.9495,VALID,182,VALID,1.76992,
2010-01-07, 00:55:05,VALID,1001.79,VALID,0.5,VALID,91.5618,VALID,0,VALID,24.7548,VALID,220,VALID,2.99414,
2010-01-07, 00:56:05,VALID,1001.74,VALID,0,VALID,91.9662,VALID,0,VALID,24.599,VALID,218,VALID,2.86094,
2010-01-07, 00:57:05,VALID,1001.92,VALID,1,VALID,92.1187,VALID,0,VALID,24.3654,VALID,256,VALID,1.84102,
2010-01-07, 00:58:05,VALID,1001.79,VALID,0.5,VALID,92.2789,VALID,0,VALID,24.2097,VALID,357,VALID,1.78711,
2010-01-07, 00:59:05,VALID,1001.91,VALID,0.5,VALID,92.729,VALID,0,VALID,24.0539,VALID,225,VALID,1.61016,
2010-01-07, 01:00:05,VALID,1002,VALID,0.5,VALID,93.1029,VALID,0,VALID,24.0168,VALID,262,VALID,2.54336,
2010-01-07, 01:01:05,VALID,1001.91,VALID,1,VALID,93.2325,VALID,0,VALID,23.8398,VALID,260,VALID,2.06602,
2010-01-07, 01:02:05,VALID,1002.17,VALID,2,VALID,93.347,VALID,0,VALID,23.6841,VALID,223,VALID,1.68164,
2010-01-07, 01:03:05,VALID,1002.3,VALID,1,VALID,93.5224,VALID,0,VALID,23.5478,VALID,257,VALID,1.99688,
2010-01-07, 01:04:05,VALID,1002.23,VALID,1,VALID,93.7208,VALID,0,VALID,23.4311,VALID,249,VALID,2.93672,
2010-01-07, 01:05:05,VALID,1002.22,VALID,1,VALID,93.942,VALID,0,VALID,23.4116,VALID,236,VALID,1.28047,
2010-01-07, 01:06:05,VALID,1002.26,VALID,0.5,VALID,94.1862,VALID,0,VALID,23.3727,VALID,218,VALID,1.00469,
2010-01-07, 01:07:05,VALID,1002.28,VALID,1,VALID,94.3387,VALID,0,VALID,23.3514,VALID,96,VALID,1.10273,
2010-01-07, 01:08:05,VALID,1002.2,VALID,1,VALID,94.4608,VALID,0,VALID,23.3337,VALID,268,VALID,2.41406,
2010-01-07, 01:09:05,VALID,1002.16,VALID,0.5,VALID,94.5447,VALID,0,VALID,23.2948,VALID,272,VALID,1.79492,
2010-01-07, 01:10:05,VALID,1002.14,VALID,0.5,VALID,94.6515,VALID,0,VALID,23.2948,VALID,287,VALID,1.00977,
2010-01-07, 01:11:05,VALID,1002.04,VALID,0.5,VALID,94.7202,VALID,0,VALID,23.3355,VALID,156,VALID,0.876953,
2010-01-07, 01:12:05,VALID,1002.06,VALID,0.5,VALID,94.7888,VALID,0,VALID,23.3355,VALID,262,VALID,0.609766,
2010-01-07, 01:13:05,VALID,1002.02,VALID,0.5,VALID,94.8499,VALID,0,VALID,23.3143,VALID,342,VALID,0.635938,
2010-01-07, 01:14:05,VALID,1002.02,VALID,0,VALID,94.9109,VALID,0,VALID,23.2931,VALID,195,VALID,0.591797,
2010-01-07, 01:15:05,VALID,1001.99,VALID,0.5,VALID,94.9643,VALID,0,VALID,23.332,VALID,302,VALID,1.80586,
2010-01-07, 01:16:05,VALID,1001.94,VALID,0.5,VALID,95.0101,VALID,0,VALID,23.3532,VALID,293,VALID,1.26406,
2010-01-07, 01:17:05,VALID,1001.88,VALID,0,VALID,95.0406,VALID,0,VALID,23.3709,VALID,342,VALID,0.473047,
2010-01-07, 01:18:05,VALID,1001.86,VALID,0.5,VALID,95.0787,VALID,0,VALID,23.4116,VALID,314,VALID,1.17539,
2010-01-07, 01:19:05,VALID,1001.84,VALID,0.5,VALID,95.0864,VALID,0,VALID,23.4098,VALID,291,VALID,0.730469,
2010-01-07, 01:20:05,VALID,1001.79,VALID,0,VALID,95.1321,VALID,0,VALID,23.4487,VALID,290,VALID,1.07969,
2010-01-07, 01:21:05,VALID,1001.74,VALID,0.5,VALID,95.155,VALID,0,VALID,23.4682,VALID,266,VALID,0.255469,
2010-01-07, 01:22:05,VALID,1001.72,VALID,0.5,VALID,95.1627,VALID,0,VALID,23.5089,VALID,291,VALID,0.284375,
2010-01-07, 01:23:05,VALID,1001.69,VALID,0.5,VALID,95.1932,VALID,0,VALID,23.5071,VALID,275,VALID,1.12461,
2010-01-07, 01:24:05,VALID,1001.75,VALID,0.5,VALID,95.2237,VALID,0,VALID,23.4877,VALID,291,VALID,1.0625,
2010-01-07, 01:25:05,VALID,1001.85,VALID,0.5,VALID,95.2542,VALID,0,VALID,23.5071,VALID,292,VALID,1.65781,
2010-01-07, 01:26:05,VALID,1001.95,VALID,1,VALID,95.2313,VALID,0.100563,VALID,23.5266,VALID,282,VALID,0.969141,
2010-01-07, 01:27:05,VALID,1002.1,VALID,1.5,VALID,95.2847,VALID,0,VALID,23.5071,VALID,299,VALID,2.02539,
2010-01-07, 01:28:05,VALID,1002.18,VALID,1.5,VALID,95.2923,VALID,0,VALID,23.5071,VALID,291,VALID,1.80156,
2010-01-07, 01:29:05,VALID,1002.13,VALID,1.5,VALID,95.2466,VALID,0,VALID,23.5266,VALID,279,VALID,1.34375,
2010-01-07, 01:30:05,VALID,1002.12,VALID,1,VALID,95.2313,VALID,0,VALID,23.5673,VALID,263,VALID,1.65508,
2010-01-07, 01:31:05,VALID,1002.08,VALID,1,VALID,97.375,VALID,0,VALID,23.6044,VALID,295,VALID,1.10234,
2010-01-07, 01:32:05,VALID,1002.08,VALID,1.5,VALID,95.5899,VALID,0,VALID,23.6823,VALID,267,VALID,1.33359,
2010-01-07, 01:33:05,VALID,1001.93,VALID,1,VALID,95.1627,VALID,0,VALID,23.723,VALID,221,VALID,1.32852,
2010-01-07, 01:34:05,VALID,1001.85,VALID,1.5,VALID,94.9414,VALID,0,VALID,23.7407,VALID,339,VALID,0.971094,
2010-01-07, 01:35:05,VALID,1001.78,VALID,0.5,VALID,94.7965,VALID,0,VALID,23.7601,VALID,293,VALID,1.79375,
2010-01-07, 01:36:05,VALID,1001.9,VALID,0.5,VALID,94.7812,VALID,0.100563,VALID,23.7796,VALID,296,VALID,1.97734,
2010-01-07, 01:37:05,VALID,1001.82,VALID,0.5,VALID,94.7583,VALID,0,VALID,23.7796,VALID,300,VALID,1.50664,
2010-01-07, 01:38:05,VALID,1001.82,VALID,1,VALID,94.7431,VALID,0,VALID,23.7212,VALID,287,VALID,4.42461,
2010-01-07, 01:39:05,VALID,1001.85,VALID,0.5,VALID,94.7431,VALID,0,VALID,23.7035,VALID,317,VALID,1.08203,
2010-01-07, 01:40:05,VALID,1001.83,VALID,0.5,VALID,94.682,VALID,0,VALID,23.6628,VALID,285,VALID,1.21484,
2010-01-07, 01:41:05,VALID,1001.86,VALID,0.5,VALID,94.6744,VALID,0.100563,VALID,23.6823,VALID,337,VALID,0.93125,
2010-01-07, 01:42:05,VALID,1001.98,VALID,0.5,VALID,94.682,VALID,0,VALID,23.6628,VALID,281,VALID,1.06719,
2010-01-07, 01:43:05,VALID,1002.01,VALID,0.5,VALID,94.7278,VALID,0,VALID,23.6841,VALID,287,VALID,0.976953,
2010-01-07, 01:44:05,VALID,1001.78,VALID,1.5,VALID,95.0024,VALID,0,VALID,23.7017,VALID,235,VALID,0.328906,
2010-01-07, 01:45:05,VALID,1001.77,VALID,0.5,VALID,95.1245,VALID,0.100563,VALID,23.7407,VALID,338,VALID,0.908203,
2010-01-07, 01:46:05,VALID,1001.76,VALID,0,VALID,94.9338,VALID,0,VALID,23.8203,VALID,347,VALID,0.797266,
2010-01-07, 01:47:05,VALID,1001.61,VALID,0.5,VALID,94.9567,VALID,0,VALID,23.7991,VALID,14,VALID,0.318359,
2010-01-07, 01:48:05,VALID,1001.6,VALID,0,VALID,94.9414,VALID,0,VALID,23.8575,VALID,356,VALID,0.776563,
2010-01-07, 01:49:05,VALID,1001.66,VALID,0,VALID,94.949,VALID,0,VALID,23.8964,VALID,288,VALID,2.32148,
2010-01-07, 01:50:05,VALID,1001.71,VALID,0,VALID,95.0101,VALID,0,VALID,23.9335,VALID,265,VALID,0.852734,
2010-01-07, 01:51:05,VALID,1001.73,VALID,0,VALID,94.9948,VALID,0,VALID,23.9742,VALID,314,VALID,0.541406,
2010-01-07, 01:52:05,VALID,1001.71,VALID,0.5,VALID,95.0024,VALID,0,VALID,24.0132,VALID,270,VALID,0.557031,
2010-01-07, 01:53:05,VALID,1001.71,VALID,0,VALID,95.0558,VALID,0,VALID,24.0132,VALID,292,VALID,0.792188,
2010-01-07, 01:54:05,VALID,1001.7,VALID,0,VALID,95.0635,VALID,0,VALID,24.0132,VALID,314,VALID,1.01523,
2010-01-07, 01:55:05,VALID,1001.69,VALID,0,VALID,95.1398,VALID,0.100563,VALID,24.0521,VALID,288,VALID,0.873828,
2010-01-07, 01:56:05,VALID,1001.68,VALID,0,VALID,95.6585,VALID,0,VALID,24.0521,VALID,291,VALID,0.948047,
2010-01-07, 01:57:05,VALID,1001.64,VALID,0,VALID,95.5822,VALID,0,VALID,24.0716,VALID,286,VALID,0.701172,
2010-01-07, 01:58:05,VALID,1001.6,VALID,0,VALID,95.7424,VALID,0.100563,VALID,24.091,VALID,287,VALID,1.24297,
2010-01-07, 01:59:05,VALID,1001.58,VALID,0,VALID,96.6732,VALID,0.100563,VALID,24.091,VALID,273,VALID,1.06094,
2010-01-07, 02:00:05,VALID,1001.54,VALID,0,VALID,97.0394,VALID,0,VALID,24.1513,VALID,332,VALID,1.08281,
2010-01-07, 02:01:05,VALID,1001.49,VALID,0,VALID,97.0241,VALID,0.100563,VALID,24.1494,VALID,301,VALID,1.20117,
2010-01-07, 02:02:05,VALID,1001.43,VALID,0.5,VALID,96.9249,VALID,0,VALID,24.1689,VALID,285,VALID,0.941797,
2010-01-07, 02:03:05,VALID,1001.42,VALID,0,VALID,96.7876,VALID,0.100563,VALID,24.1884,VALID,278,VALID,1.35469,
2010-01-07, 02:04:05,VALID,1001.4,VALID,0,VALID,96.7037,VALID,0.100563,VALID,24.2273,VALID,249,VALID,0.766406,
2010-01-07, 02:05:05,VALID,1001.41,VALID,0,VALID,96.6884,VALID,0.100563,VALID,24.2078,VALID,282,VALID,1.03437,
2010-01-07, 02:06:05,VALID,1001.38,VALID,0,VALID,96.5587,VALID,0.100563,VALID,24.2273,VALID,274,VALID,0.804688,
2010-01-07, 02:07:05,VALID,1001.36,VALID,0,VALID,96.5206,VALID,0,VALID,24.2273,VALID,298,VALID,0.932422,
2010-01-07, 02:08:05,VALID,1001.3,VALID,0,VALID,96.429,VALID,0,VALID,24.2662,VALID,289,VALID,1.13906,
2010-01-07, 02:09:05,VALID,1001.24,VALID,0,VALID,96.5969,VALID,0.100563,VALID,24.2468,VALID,265,VALID,1.33281,
2010-01-07, 02:10:05,VALID,1001.14,VALID,0,VALID,96.4825,VALID,0.100563,VALID,24.2468,VALID,294,VALID,1.74844,
2010-01-07, 02:11:05,VALID,1001.09,VALID,0,VALID,96.4977,VALID,0.100563,VALID,24.2468,VALID,286,VALID,1.0543,
2010-01-07, 02:12:05,VALID,1001.03,VALID,0,VALID,96.5893,VALID,0,VALID,24.2662,VALID,360,VALID,0.7625,
2010-01-07, 02:13:05,VALID,1001.02,VALID,0,VALID,96.5893,VALID,0.100563,VALID,24.2857,VALID,309,VALID,1.05469,
2010-01-07, 02:14:05,VALID,1000.99,VALID,0,VALID,96.5893,VALID,0.100563,VALID,24.3052,VALID,294,VALID,1.64492,
2010-01-07, 02:15:05,VALID,1000.98,VALID,0,VALID,96.5969,VALID,0.100563,VALID,24.3052,VALID,289,VALID,2.1293,
2010-01-07, 02:16:05,VALID,1000.94,VALID,0.5,VALID,96.5282,VALID,0,VALID,24.3052,VALID,318,VALID,1.57617,
2010-01-07, 02:17:05,VALID,1000.93,VALID,0,VALID,96.4825,VALID,0.100563,VALID,24.3246,VALID,301,VALID,1.85977,
2010-01-07, 02:18:05,VALID,1000.92,VALID,0,VALID,96.4825,VALID,0,VALID,24.3246,VALID,304,VALID,1.13359,
2010-01-07, 02:19:05,VALID,1000.9,VALID,0,VALID,96.4214,VALID,0,VALID,24.3265,VALID,295,VALID,2.21641,
2010-01-07, 02:20:05,VALID,1000.92,VALID,0,VALID,96.3909,VALID,0.100563,VALID,24.3246,VALID,271,VALID,1.26367,
2010-01-07, 02:21:05,VALID,1000.91,VALID,0,VALID,96.368,VALID,0,VALID,24.3246,VALID,307,VALID,1.4043,
2010-01-07, 02:22:05,VALID,1000.95,VALID,0,VALID,96.6579,VALID,0,VALID,24.3441,VALID,306,VALID,0.94375,
2010-01-07, 02:23:05,VALID,1000.94,VALID,0,VALID,96.4977,VALID,0,VALID,24.3441,VALID,299,VALID,2.27617,
2010-01-07, 02:24:05,VALID,1000.93,VALID,0,VALID,96.4596,VALID,0,VALID,24.3441,VALID,275,VALID,0.707812,
2010-01-07, 02:25:05,VALID,1000.9,VALID,0,VALID,96.429,VALID,0.100563,VALID,24.383,VALID,295,VALID,1.75977,
2010-01-07, 02:26:05,VALID,1000.92,VALID,0,VALID,96.7037,VALID,0,VALID,24.383,VALID,311,VALID,1.26016,
2010-01-07, 02:27:05,VALID,1000.9,VALID,0,VALID,96.6961,VALID,0,VALID,24.383,VALID,302,VALID,1.62266,
2010-01-07, 02:28:05,VALID,1000.9,VALID,0,VALID,96.7037,VALID,0,VALID,24.4043,VALID,291,VALID,1.15703,
2010-01-07, 02:29:05,VALID,1000.97,VALID,0.5,VALID,96.7342,VALID,0,VALID,24.4025,VALID,286,VALID,1.89336,
2010-01-07, 02:30:05,VALID,1000.98,VALID,0,VALID,96.7189,VALID,0,VALID,24.4025,VALID,285,VALID,1.28086,
2010-01-07, 02:31:05,VALID,1000.94,VALID,0,VALID,96.7189,VALID,0,VALID,24.422,VALID,286,VALID,0.955859,
2010-01-07, 02:32:05,VALID,1000.9,VALID,0,VALID,96.6732,VALID,0,VALID,24.4433,VALID,287,VALID,1.28633,
2010-01-07, 02:33:05,VALID,1000.92,VALID,0,VALID,96.6579,VALID,0,VALID,24.4433,VALID,306,VALID,1.48164,
2010-01-07, 02:34:05,VALID,1000.86,VALID,0,VALID,96.6503,VALID,0,VALID,24.4414,VALID,305,VALID,1.01992,
2010-01-07, 02:35:05,VALID,1000.83,VALID,0.5,VALID,96.6121,VALID,0,VALID,24.4628,VALID,324,VALID,0.642187,
2010-01-07, 02:36:05,VALID,1000.85,VALID,0,VALID,96.6427,VALID,0,VALID,24.4609,VALID,290,VALID,1.30039,
2010-01-07, 02:37:05,VALID,1000.8,VALID,0,VALID,96.5816,VALID,0,VALID,24.4804,VALID,312,VALID,1.32617,
2010-01-07, 02:38:05,VALID,1000.78,VALID,0,VALID,96.6045,VALID,0.100563,VALID,24.4998,VALID,307,VALID,1.89766,
2010-01-07, 02:39:05,VALID,1000.77,VALID,0,VALID,96.5816,VALID,0,VALID,24.5193,VALID,309,VALID,1.21094,
2010-01-07, 02:40:05,VALID,1000.77,VALID,0.5,VALID,96.6198,VALID,0,VALID,24.5601,VALID,285,VALID,1.62188,
2010-01-07, 02:41:05,VALID,1000.78,VALID,0,VALID,96.574,VALID,0,VALID,24.6009,VALID,298,VALID,1.53594,
2010-01-07, 02:42:05,VALID,1000.81,VALID,0,VALID,96.6121,VALID,0,VALID,24.5777,VALID,284,VALID,2.20586,
2010-01-07, 02:43:05,VALID,1000.81,VALID,0,VALID,96.5587,VALID,0,VALID,24.6185,VALID,291,VALID,1.94375,
2010-01-07, 02:44:05,VALID,1000.85,VALID,0,VALID,96.6121,VALID,0,VALID,24.638,VALID,304,VALID,0.820313,
2010-01-07, 02:45:05,VALID,1000.84,VALID,0,VALID,96.6961,VALID,0,VALID,24.6166,VALID,303,VALID,1.58477,
2010-01-07, 02:46:05,VALID,1000.85,VALID,0.5,VALID,96.7266,VALID,0,VALID,24.6361,VALID,286,VALID,1.43906,
2010-01-07, 02:47:05,VALID,1000.93,VALID,0,VALID,96.6808,VALID,0,VALID,24.6556,VALID,258,VALID,1.06641,
2010-01-07, 02:48:05,VALID,1000.98,VALID,0,VALID,96.6655,VALID,0.100563,VALID,24.6556,VALID,288,VALID,1.38984,
2010-01-07, 02:49:05,VALID,1000.97,VALID,0,VALID,96.6655,VALID,0,VALID,24.6945,VALID,299,VALID,1.64766,
2010-01-07, 02:50:04,VALID,1000.96,VALID,0,VALID,96.7189,VALID,0.100563,VALID,24.6945,VALID,294,VALID,2.19219,
2010-01-07, 02:51:04,VALID,1000.98,VALID,0,VALID,96.7113,VALID,0,VALID,24.714,VALID,299,VALID,1.32656,
2010-01-07, 02:52:04,VALID,1001,VALID,0,VALID,96.7189,VALID,0,VALID,24.7353,VALID,296,VALID,0.896875,
2010-01-07, 02:53:04,VALID,1000.94,VALID,0.5,VALID,96.7418,VALID,0.100563,VALID,24.7548,VALID,286,VALID,0.94375,
2010-01-07, 02:54:04,VALID,1000.95,VALID,0,VALID,96.6884,VALID,0,VALID,24.7743,VALID,268,VALID,0.466797,
2010-01-07, 02:55:04,VALID,1000.94,VALID,0,VALID,96.7723,VALID,0.100563,VALID,24.7937,VALID,296,VALID,1.21914,
2010-01-07, 02:56:04,VALID,1000.92,VALID,0,VALID,96.7418,VALID,0,VALID,24.7724,VALID,335,VALID,0.646875,
2010-01-07, 02:57:04,VALID,1000.96,VALID,0,VALID,96.7571,VALID,0,VALID,24.7919,VALID,237,VALID,0.146094,
2010-01-07, 02:58:04,VALID,1000.95,VALID,0,VALID,96.7876,VALID,0,VALID,24.8132,VALID,302,VALID,1.85781,
2010-01-07, 02:59:04,VALID,1000.96,VALID,0.5,VALID,96.7952,VALID,0,VALID,24.8113,VALID,336,VALID,0.448828,
2010-01-07, 03:00:04,VALID,1000.97,VALID,0,VALID,96.9478,VALID,0,VALID,24.8308,VALID,297,VALID,1.06172,
2010-01-07, 03:01:04,VALID,1001,VALID,0,VALID,96.9707,VALID,0,VALID,24.8113,VALID,313,VALID,0.969531,
2010-01-07, 03:02:04,VALID,1000.99,VALID,0,VALID,97.0088,VALID,0,VALID,24.8522,VALID,319,VALID,0.416797,
2010-01-07, 03:03:04,VALID,1001.01,VALID,0,VALID,97.0394,VALID,0,VALID,24.8308,VALID,285,VALID,1.50391,
2010-01-07, 03:04:04,VALID,1001.06,VALID,0,VALID,97.0928,VALID,0,VALID,24.8716,VALID,300,VALID,0.254297,
2010-01-07, 03:05:04,VALID,1001.08,VALID,0,VALID,97.0928,VALID,0,VALID,24.8716,VALID,284,VALID,0.672266,
2010-01-07, 03:06:04,VALID,1001.11,VALID,0,VALID,97.0699,VALID,0,VALID,24.8716,VALID,303,VALID,1.14922,
2010-01-07, 03:07:04,VALID,1001.14,VALID,0,VALID,97.0851,VALID,0,VALID,24.8911,VALID,295,VALID,1.23047,
2010-01-07, 03:08:04,VALID,1001.18,VALID,0,VALID,97.1538,VALID,0,VALID,24.8697,VALID,286,VALID,1.9707,
2010-01-07, 03:09:04,VALID,1001.17,VALID,0,VALID,97.1385,VALID,0,VALID,24.8697,VALID,289,VALID,0.908984,
2010-01-07, 03:10:04,VALID,1001.18,VALID,0.5,VALID,97.2072,VALID,0,VALID,24.9106,VALID,292,VALID,0.958984,
2010-01-07, 03:11:04,VALID,1001.17,VALID,0,VALID,97.2453,VALID,0,VALID,24.8892,VALID,296,VALID,0.631641,
2010-01-07, 03:12:04,VALID,1001.16,VALID,0,VALID,97.1767,VALID,0,VALID,24.9087,VALID,307,VALID,1.61484,
2010-01-07, 03:13:04,VALID,1001.14,VALID,0,VALID,97.2682,VALID,0,VALID,24.9087,VALID,295,VALID,1.21719,
2010-01-07, 03:14:04,VALID,1001.17,VALID,0,VALID,97.2682,VALID,0,VALID,24.9282,VALID,287,VALID,1.88203,
2010-01-07, 03:15:04,VALID,1001.19,VALID,0,VALID,97.314,VALID,0.100563,VALID,24.9282,VALID,295,VALID,1.77695,
2010-01-07, 03:16:04,VALID,1001.2,VALID,0,VALID,97.2987,VALID,0,VALID,24.9495,VALID,288,VALID,2.08672,
2010-01-07, 03:17:04,VALID,1001.21,VALID,0.5,VALID,97.2911,VALID,0,VALID,24.9282,VALID,301,VALID,2.5668,
2010-01-07, 03:18:04,VALID,1001.19,VALID,0,VALID,97.3064,VALID,0,VALID,24.9476,VALID,302,VALID,1.85312,
2010-01-07, 03:19:04,VALID,1001.14,VALID,0,VALID,97.3064,VALID,0.100563,VALID,24.9476,VALID,317,VALID,1.90937,
2010-01-07, 03:20:04,VALID,1001.19,VALID,0,VALID,97.3521,VALID,0,VALID,24.969,VALID,304,VALID,1.93047,
2010-01-07, 03:21:04,VALID,1001.11,VALID,0.5,VALID,97.375,VALID,0,VALID,24.969,VALID,305,VALID,1.8293,
2010-01-07, 03:22:04,VALID,1001.15,VALID,0,VALID,97.3369,VALID,0,VALID,24.9885,VALID,280,VALID,1.55039,
2010-01-07, 03:23:04,VALID,1001.11,VALID,0,VALID,97.4895,VALID,0,VALID,24.9495,VALID,313,VALID,2.86875,
2010-01-07, 03:24:04,VALID,1001.05,VALID,0,VALID,97.5124,VALID,0.100563,VALID,24.9106,VALID,300,VALID,2.99375,
2010-01-07, 03:25:04,VALID,1000.99,VALID,0,VALID,97.4971,VALID,0,VALID,24.8911,VALID,319,VALID,2.17109,
2010-01-07, 03:26:04,VALID,1001.02,VALID,0,VALID,97.581,VALID,0,VALID,24.8132,VALID,318,VALID,2.25078,
2010-01-07, 03:27:04,VALID,1001.05,VALID,0,VALID,97.581,VALID,0,VALID,24.8327,VALID,305,VALID,1.99766,
2010-01-07, 03:28:04,VALID,1001.06,VALID,0,VALID,97.7412,VALID,0,VALID,24.7353,VALID,16,VALID,1.63437,
2010-01-07, 03:29:04,VALID,1001.08,VALID,0,VALID,97.6039,VALID,0,VALID,24.6945,VALID,283,VALID,3.13086,
2010-01-07, 03:30:04,VALID,1001.16,VALID,0,VALID,97.5505,VALID,0,VALID,24.675,VALID,289,VALID,0.938281,
2010-01-07, 03:31:04,VALID,1001.07,VALID,0,VALID,97.4971,VALID,0,VALID,24.675,VALID,306,VALID,0.210938,
2010-01-07, 03:32:04,VALID,1001.04,VALID,0.5,VALID,97.5124,VALID,0,VALID,24.675,VALID,293,VALID,1.77188,
2010-01-07, 03:33:04,VALID,1001.04,VALID,0,VALID,97.5505,VALID,0,VALID,24.6769,VALID,283,VALID,1.14063,
2010-01-07, 03:34:04,VALID,1001.02,VALID,0,VALID,97.5658,VALID,0.100563,VALID,24.5601,VALID,294,VALID,1.32031,
2010-01-07, 03:35:04,VALID,1000.94,VALID,0,VALID,97.6726,VALID,0,VALID,24.422,VALID,296,VALID,2.89258,
2010-01-07, 03:36:04,VALID,1000.98,VALID,0,VALID,97.5734,VALID,0,VALID,24.422,VALID,297,VALID,1.90508,
2010-01-07, 03:37:04,VALID,1000.88,VALID,0,VALID,97.6192,VALID,0,VALID,24.383,VALID,311,VALID,1.75781,
2010-01-07, 03:38:04,VALID,1000.87,VALID,0,VALID,97.6039,VALID,0,VALID,24.3441,VALID,285,VALID,3.55859,
2010-01-07, 03:39:04,VALID,1000.8,VALID,0,VALID,97.6726,VALID,0,VALID,24.3265,VALID,300,VALID,1.96055,
2010-01-07, 03:40:04,VALID,1000.8,VALID,0,VALID,97.6115,VALID,0,VALID,24.2681,VALID,318,VALID,2.80898,
2010-01-07, 03:41:04,VALID,1000.76,VALID,0,VALID,97.5581,VALID,0,VALID,24.1884,VALID,285,VALID,3.40937,
2010-01-07, 03:42:04,VALID,1000.78,VALID,0.5,VALID,97.6954,VALID,0,VALID,24.2097,VALID,245,VALID,0.983203,